Weather History for Carrollton, GA

Change the Weather History Date:

Tuesday, April 8, 2014

  Actual Average Record
Temperature  
Mean Temperature 53 °F -  
Max Temperature 62 °F 73 °F 87 °F (1978)
Min Temperature 44 °F 45 °F 29 °F (1990)
Degree Days  
Heating Degree Days 12    
Growing Degree Days 3 (Base 50)    
Moisture  
Dew Point 41 °F    
Average Humidity 65    
Maximum Humidity 87    
Minimum Humidity 37    
Precipitation  
Precipitation 0.00 in - - ()
Sea Level Pressure  
Sea Level Pressure 29.79 in    
Wind  
Wind Speed 7 mph (NW)    
Max Wind Speed 15 mph    
Max Gust Speed 23 mph    
Visibility 10 miles    
Events      
Averages and records for this station are not official NWS values.
T = Trace of Precipitation, MM = Missing Value Source: NWS Daily Summary

Daily Weather History Graph

Daily Weather History Graph

Search for Another Location

Airport:

Trip Planner

Search our weather history database for the weather conditions in past years. The results will help you decide how hot, cold, wet, or windy it might be!

Date:

Astronomy

Apr. 08, 2014 Rise Set
Actual Time 7:18 AM EDT 8:06 PM EDT
Civil Twilight 6:53 AM EDT 8:31 PM EDT
Nautical Twilight 6:23 AM EDT 9:01 PM EDT
Astronomical Twilight 5:53 AM EDT 9:32 PM EDT
Moon 2:15 PM EDT (4/8) 3:14 AM EDT (4/8)
Length of Visible Light 13h 38m
Length of Day
12h 47m
Waxing Gibbous, 62% of the Moon is Illuminated
Apr 8
Waxing Gibbous
Apr 15
Full
Apr 22
Last Quarter
Apr 29
New
May 6
First Quarter

Hourly Weather History & Observations

Time (EDT) Temp. Windchill Dew Point Humidity Pressure Visibility Wind Dir Wind Speed Gust Speed Precip Events Conditions
12:13 AM 53.6 °F - 44.6 °F 72% 29.82 in 10.0 mi WNW 5.8 mph - N/A   Overcast
12:33 AM 53.6 °F - 44.6 °F 72% 29.82 in 10.0 mi WNW 4.6 mph - N/A   Overcast
12:53 AM 51.8 °F - 44.6 °F 76% 29.82 in 10.0 mi WNW 5.8 mph - N/A   Overcast
1:13 AM 51.8 °F - 44.6 °F 76% 29.81 in 10.0 mi WNW 5.8 mph - N/A   Overcast
1:33 AM 51.8 °F - 44.6 °F 76% 29.81 in 10.0 mi NW 5.8 mph - N/A   Overcast
1:53 AM 51.8 °F - 44.6 °F 76% 29.80 in 10.0 mi WNW 6.9 mph - N/A   Overcast
2:13 AM 51.8 °F - 44.6 °F 76% 29.80 in 10.0 mi NW 6.9 mph - N/A   Overcast
2:33 AM 51.8 °F - 42.8 °F 71% 29.80 in 10.0 mi NW 8.1 mph - N/A   Overcast
2:53 AM 50.0 °F - 42.8 °F 76% 29.79 in 10.0 mi NNW 10.4 mph - N/A   Overcast
3:13 AM 50.0 °F - 42.8 °F 76% 29.79 in 10.0 mi NW 8.1 mph - N/A   Overcast
3:33 AM 50.0 °F - 42.8 °F 76% 29.79 in 10.0 mi NW 4.6 mph - N/A   Overcast
3:53 AM 50.0 °F - 42.8 °F 76% 29.78 in 10.0 mi NNW 8.1 mph 17.3 mph N/A   Overcast
4:13 AM 50.0 °F - 42.8 °F 76% 29.78 in 10.0 mi NW 5.8 mph - N/A   Overcast
4:33 AM 48.2 °F - 41.0 °F 76% 29.78 in 10.0 mi NW 5.8 mph - N/A   Overcast
4:53 AM 48.2 °F - 42.8 °F 82% 29.78 in 10.0 mi NW 4.6 mph - N/A   Overcast
5:13 AM 48.2 °F - 42.8 °F 82% 29.78 in 10.0 mi NW 6.9 mph - N/A   Overcast
5:33 AM 46.4 °F 42.9 °F 42.8 °F 87% 29.77 in 10.0 mi NW 6.9 mph - N/A   Overcast
5:53 AM 46.4 °F 45.2 °F 42.8 °F 87% 29.76 in 10.0 mi NW 3.5 mph - N/A   Overcast
6:13 AM 46.4 °F 45.2 °F 42.8 °F 87% 29.77 in 10.0 mi NW 3.5 mph - N/A   Overcast
6:33 AM 46.4 °F 45.2 °F 42.8 °F 87% 29.77 in 10.0 mi WNW 3.5 mph - N/A   Overcast
6:53 AM 46.4 °F 44.3 °F 42.8 °F 87% 29.77 in 10.0 mi NW 4.6 mph - N/A   Overcast
7:13 AM 46.4 °F 45.2 °F 42.8 °F 87% 29.77 in 10.0 mi NW 3.5 mph - N/A   Overcast
7:33 AM 46.4 °F 44.3 °F 41.0 °F 81% 29.78 in 10.0 mi NW 4.6 mph - N/A   Overcast
7:53 AM 44.6 °F 43.1 °F 41.0 °F 87% 29.80 in 10.0 mi WNW 3.5 mph - N/A   Scattered Clouds
8:13 AM 44.6 °F 43.1 °F 41.0 °F 87% 29.80 in 10.0 mi NW 3.5 mph - N/A   Clear
8:33 AM 44.6 °F 42.2 °F 41.0 °F 87% 29.81 in 10.0 mi WNW 4.6 mph - N/A   Clear
8:53 AM 46.4 °F 42.9 °F 42.8 °F 87% 29.81 in 10.0 mi NNW 6.9 mph - N/A   Scattered Clouds
9:13 AM 48.2 °F - 41.0 °F 76% 29.81 in 10.0 mi NW 9.2 mph - N/A   Scattered Clouds
9:33 AM 50.0 °F - 41.0 °F 71% 29.82 in 10.0 mi NNW 12.7 mph 16.1 mph N/A   Mostly Cloudy
9:53 AM 50.0 °F - 41.0 °F 71% 29.81 in 10.0 mi North 12.7 mph - N/A   Scattered Clouds
10:13 AM 51.8 °F - 41.0 °F 67% 29.82 in 10.0 mi NNW 10.4 mph - N/A   Scattered Clouds
10:33 AM 51.8 °F - 41.0 °F 67% 29.82 in 10.0 mi North 15.0 mph 19.6 mph N/A   Scattered Clouds
10:53 AM 53.6 °F - 39.2 °F 58% 29.82 in 10.0 mi North 15.0 mph 23.0 mph N/A   Scattered Clouds
11:13 AM 53.6 °F - 41.0 °F 62% 29.82 in 10.0 mi North 10.4 mph - N/A   Scattered Clouds
11:33 AM 53.6 °F - 39.2 °F 58% 29.82 in 10.0 mi North 15.0 mph 21.9 mph N/A   Scattered Clouds
11:53 AM 55.4 °F - 41.0 °F 58% 29.82 in 10.0 mi North 8.1 mph 16.1 mph N/A   Scattered Clouds
12:13 PM 55.4 °F - 39.2 °F 54% 29.82 in 10.0 mi North 11.5 mph 19.6 mph N/A   Scattered Clouds
12:33 PM 57.2 °F - 39.2 °F 51% 29.80 in 10.0 mi North 12.7 mph 21.9 mph N/A   Clear
12:53 PM 59.0 °F - 41.0 °F 51% 29.79 in 10.0 mi North 13.8 mph 19.6 mph N/A   Scattered Clouds
1:13 PM 59.0 °F - 39.2 °F 48% 29.79 in 10.0 mi NNW 13.8 mph 23.0 mph N/A   Scattered Clouds
1:33 PM 59.0 °F - 39.2 °F 48% 29.78 in 10.0 mi NNW 11.5 mph 18.4 mph N/A   Scattered Clouds
1:53 PM 59.0 °F - 37.4 °F 45% 29.78 in 10.0 mi WNW 10.4 mph 18.4 mph N/A   Mostly Cloudy
2:13 PM 60.8 °F - 37.4 °F 42% 29.77 in 10.0 mi North 5.8 mph 21.9 mph N/A   Mostly Cloudy
2:53 PM 60.8 °F - 37.4 °F 42% 29.75 in 10.0 mi NW 11.5 mph 19.6 mph N/A   Mostly Cloudy
3:13 PM 62.6 °F - 37.4 °F 39% 29.75 in 10.0 mi North 15.0 mph 18.4 mph N/A   Mostly Cloudy
3:33 PM 62.6 °F - 35.6 °F 37% 29.74 in 10.0 mi NNW 10.4 mph - N/A   Mostly Cloudy
3:53 PM 60.8 °F - 35.6 °F 39% 29.74 in 10.0 mi NW 10.4 mph 16.1 mph N/A   Mostly Cloudy
4:13 PM 60.8 °F - 35.6 °F 39% 29.73 in 10.0 mi North 6.9 mph - N/A   Overcast
4:33 PM 60.8 °F - 37.4 °F 42% 29.74 in 10.0 mi NNW 9.2 mph - N/A   Overcast
4:53 PM 60.8 °F - 37.4 °F 42% 29.75 in 10.0 mi North 12.7 mph - N/A   Overcast
5:13 PM 60.8 °F - 37.4 °F 42% 29.75 in 10.0 mi NNW 5.8 mph - N/A   Overcast
5:33 PM 60.8 °F - 37.4 °F 42% 29.75 in 10.0 mi NW 8.1 mph - N/A   Overcast
5:53 PM 60.8 °F - 37.4 °F 42% 29.75 in 10.0 mi NNW 6.9 mph - N/A   Overcast
6:13 PM 60.8 °F - 37.4 °F 42% 29.75 in 10.0 mi NW 8.1 mph - N/A   Overcast
6:53 PM 60.8 °F - 37.4 °F 42% 29.76 in 10.0 mi WNW 4.6 mph - N/A   Mostly Cloudy
7:13 PM 59.0 °F - 37.4 °F 45% 29.77 in 10.0 mi WNW 3.5 mph - N/A   Scattered Clouds
7:33 PM 59.0 °F - 37.4 °F 45% 29.77 in 10.0 mi WNW 3.5 mph - N/A   Mostly Cloudy
7:53 PM 57.2 °F - 39.2 °F 51% 29.78 in 10.0 mi Calm Calm - N/A   Overcast
8:13 PM 55.4 °F - 41.0 °F 58% 29.78 in 10.0 mi WNW 3.5 mph - N/A   Overcast
8:33 PM 53.6 °F - 41.0 °F 62% 29.79 in 10.0 mi Calm Calm - N/A   Overcast
8:53 PM 53.6 °F - 42.8 °F 67% 29.79 in 10.0 mi Calm Calm - N/A   Overcast
9:13 PM 53.6 °F - 41.0 °F 62% 29.81 in 10.0 mi NW 4.6 mph - N/A   Overcast
9:33 PM 53.6 °F - 41.0 °F 62% 29.82 in 10.0 mi North 9.2 mph - N/A   Overcast
9:53 PM 53.6 °F - 41.0 °F 62% 29.82 in 10.0 mi NW 3.5 mph - N/A   Overcast
10:13 PM 51.8 °F - 42.8 °F 71% 29.82 in 10.0 mi Calm Calm - N/A   Mostly Cloudy
10:33 PM 51.8 °F - 41.0 °F 67% 29.82 in 10.0 mi WNW 3.5 mph - N/A   Scattered Clouds
10:53 PM 50.0 °F - 42.8 °F 76% 29.82 in 10.0 mi NW 3.5 mph - N/A   Mostly Cloudy
11:13 PM 51.8 °F - 42.8 °F 71% 29.84 in 10.0 mi NW 5.8 mph - N/A   Overcast
11:33 PM 51.8 °F - 42.8 °F 71% 29.85 in 10.0 mi NNW 6.9 mph - N/A   Mostly Cloudy
11:53 PM 51.8 °F - 42.8 °F 71% 29.85 in 10.0 mi NW 5.8 mph - N/A   Overcast